This is the latest recevied weather packets stored in our database for station/object K5NWZ. If no packets are shown the sender has not sent any weather packets the latest 10 day(s).
| Time | Temp. | Humidity | Pressure | Rain* | Wind** | Luminosity | Snow |
|---|---|---|---|---|---|---|---|
| 1787577074 | 18.89° C | 60% | 1030.1 hPa | 0 mm | - | 37 W/m² | - |
| 1787576770 | 18.33° C | 64% | 1029.9 hPa | 0 mm | - | 43 W/m² | - |
| 1787576465 | 17.78° C | 62% | 1029.8 hPa | 0 mm | - | 38 W/m² | - |
| 1787576161 | 18.33° C | 63% | 1029.8 hPa | 0 mm | - | 33 W/m² | - |
| 1787575856 | 17.78° C | 61% | 1029.9 hPa | 0 mm | - | 27 W/m² | - |
| 1787575551 | 17.78° C | 62% | 1029.8 hPa | 0 mm | - | 23 W/m² | - |
| 1787575246 | 17.22° C | 66% | 1029.6 hPa | 0 mm | - | 19 W/m² | - |
| 1787574941 | 16.67° C | 68% | 1029.8 hPa | 0 mm | - | 15 W/m² | - |
| 1787574636 | 16.11° C | 70% | 1029.7 hPa | 0 mm | - | 11 W/m² | - |
| 1787574332 | 16.11° C | 69% | 1029.5 hPa | 0 mm | - | 7 W/m² | - |
| 1787574030 | 16.67° C | 68% | 1029.7 hPa | 0 mm | - | 4 W/m² | - |
| 1787573726 | 16.67° C | 68% | 1029.4 hPa | 0 mm | - | 2 W/m² | - |
| 1787573420 | 16.67° C | 67% | 1029.4 hPa | 0 mm | - | 1 W/m² | - |
| 1787573116 | 16.67° C | 67% | 1029.5 hPa | 0 mm | - | 0 W/m² | - |
| 1787572807 | 16.67° C | 67% | 1029.1 hPa | 0 mm | - | 0 W/m² | - |
| 1787572502 | 17.22° C | 64% | 1029 hPa | 0 mm | - | 0 W/m² | - |
| 1787572201 | 16.67° C | 65% | 1029.1 hPa | 0 mm | - | 0 W/m² | - |
| 1787571896 | 16.67° C | 67% | 1029.3 hPa | 0 mm | - | 0 W/m² | - |
| 1787571585 | 17.22° C | 66% | 1029.1 hPa | 0 mm | - | 0 W/m² | - |
| 1787571284 | 17.22° C | 66% | 1029 hPa | 0 mm | - | 0 W/m² | - |
| 1787570980 | 17.22° C | 65% | 1028.9 hPa | 0 mm | - | 0 W/m² | - |
| 1787570675 | 16.67° C | 66% | 1029.1 hPa | 0 mm | - | 0 W/m² | - |
| 1787570365 | 16.67° C | 68% | 1028.9 hPa | 0 mm | - | 0 W/m² | - |
| 1787570061 | 16.67° C | 69% | 1029.1 hPa | 0 mm | - | 0 W/m² | - |
| 1787569752 | 16.11° C | 71% | 1028.9 hPa | 0 mm | - | 0 W/m² | - |
* Rain latest hour (hover to see other rain measurements)
** Current wind speed in m/s (hover to see current wind gust speed)